This is the latest recevied weather packets stored in our database for station/object N3MFL. If no packets are shown the sender has not sent any weather packets the latest 10 day(s).
| Time | Temp. | Humidity | Pressure | Rain* | Wind** | Luminosity | Snow |
|---|---|---|---|---|---|---|---|
| 1777461147 | 8.33° C | 85% | 1018.5 hPa | 0 mm | - | 54 W/m² | - |
| 1777460842 | 7.78° C | 85% | 1018.3 hPa | 0 mm | - | 53 W/m² | - |
| 1777460539 | 7.78° C | 84% | 1018.2 hPa | 0 mm | - | 53 W/m² | - |
| 1777460234 | 7.78° C | 83% | 1018.4 hPa | 0 mm | - | 45 W/m² | - |
| 1777459932 | 7.78° C | 83% | 1018.3 hPa | 0 mm | - | 41 W/m² | - |
| 1777459023 | 7.78° C | 83% | 1018.4 hPa | 0 mm | - | 28 W/m² | - |
| 1777458416 | 7.78° C | 83% | 1018.1 hPa | 0 mm | - | 21 W/m² | - |
| 1777457808 | 7.22° C | 83% | 1018.4 hPa | 0 mm | - | 15 W/m² | - |
| 1777457508 | 7.22° C | 84% | 1018.3 hPa | 0 mm | - | 13 W/m² | - |
| 1777457204 | 7.22° C | 84% | 1018 hPa | 0 mm | - | 11 W/m² | - |
| 1777456900 | 7.22° C | 84% | 1017.9 hPa | 0 mm | - | 8 W/m² | - |
| 1777455684 | 7.22° C | 84% | 1017.9 hPa | 0 mm | - | 1 W/m² | - |
| 1777455381 | 7.22° C | 84% | 1017.7 hPa | 0 mm | - | 1 W/m² | - |
| 1777455077 | 7.22° C | 84% | 1017.7 hPa | 0 mm | - | 0 W/m² | - |
| 1777454774 | 7.22° C | 84% | 1018 hPa | 0 mm | - | 0 W/m² | - |
| 1777454469 | 6.67° C | 84% | 1017.8 hPa | 0 mm | - | 0 W/m² | - |
| 1777454166 | 6.67° C | 84% | 1017.7 hPa | 0 mm | - | 0 W/m² | - |
| 1777453863 | 6.67° C | 84% | 1017.5 hPa | 0 mm | - | 0 W/m² | - |
| 1777453561 | 6.67° C | 84% | 1017.6 hPa | 0 mm | - | 0 W/m² | - |
| 1777453257 | 6.67° C | 84% | 1017.6 hPa | 0 mm | - | 0 W/m² | - |
| 1777452954 | 6.67° C | 84% | 1017.7 hPa | 0 mm | - | 0 W/m² | - |
| 1777452348 | 6.67° C | 84% | 1017.8 hPa | 0 mm | - | 0 W/m² | - |
| 1777452043 | 6.67° C | 84% | 1017.8 hPa | 0 mm | - | 0 W/m² | - |
| 1777451739 | 7.22° C | 83% | 1018 hPa | 0 mm | - | 0 W/m² | - |
| 1777451435 | 7.22° C | 83% | 1017.9 hPa | 0 mm | - | 0 W/m² | - |
* Rain latest hour (hover to see other rain measurements)
** Current wind speed in m/s (hover to see current wind gust speed)